[[{"header":{"parameterUnit":"m.s-1","parameterCategory":1,"la1":30.2991,"la2":30.254,"lo1":-89.0895,"lo2":-89.0444,"dy":0.0017,"dx":0.0017,"nx":28,"ny":28,"refTime":"2025-03-10T21:00:00:Z","depth":0,"parameterNumber":2,"parameterNumberName":"U-component_of_WINDS"},"data":[0,0,0,0,0,0,0,0,0,0,0,0,0,0,0,0,0,0,0,0,0,0,0,0,0,0,0,0,0,0,0,0,0,0,0,0,0,0,0,0,0,0,0,0,0,0,0,0,0,0,0,0,0,0,0,0,0,0,4.2357,4.2359,0,4.2581,4.2584,4.2586,4.2582,4.2579,4.2576,4.2573,4.2806,4.2815,4.2824,0,0,0,0,0,0,0,0,0,0,0,0,0,4.1925,4.1933,4.2356,4.2359,4.2362,4.2581,4.2584,4.2587,4.2583,4.2579,4.2576,4.2572,4.2803,4.2814,4.2825,0,0,0,0,0,0,0,0,0,0,0,0,0,4.2127,4.1936,4.2356,4.2386,4.2391,4.258,4.2584,4.2588,4.2584,4.2579,4.2575,4.257,4.28,4.2813,4.2826,4.3001,0,0,4.2868,4.2874,0,0,0,0,0,0,0,0,4.2116,4.2143,4.2379,4.2384,4.239,4.2549,4.2517,4.2726,4.2585,4.2511,4.2573,4.2568,4.2725,4.2744,4.2796,4.3012,4.3022,4.2869,4.2877,4.2883,4.2887,0,0,0,0,0,0,0,4.2102,4.2134,4.2445,4.2382,4.2389,4.2389,4.2413,4.2557,4.2641,4.2517,4.2517,4.2544,4.2727,4.2783,4.2802,4.3025,4.2869,4.2881,4.2889,4.2894,4.3393,4.3398,0,0,0,0,0,0,4.2081,4.2122,4.2438,4.2452,4.2239,4.2401,4.2427,4.2503,4.2639,4.2655,4.2547,4.2543,4.2762,4.2786,4.281,4.3021,4.2883,4.2896,4.2903,4.3388,4.3395,4.34,0,0,0,0,0,0,4.2072,4.211,4.2429,4.2287,4.2328,4.2413,4.2498,4.251,4.2566,4.2662,4.2677,4.2589,4.276,4.2791,4.2953,4.3029,4.2902,4.2914,4.3382,4.339,4.3397,4.3446,0,0,0,0,0,0,4.206,4.2106,4.2173,4.2289,4.2335,4.2568,4.2503,4.2517,4.2589,4.2585,4.2705,4.2721,4.2759,4.2933,4.2966,4.3045,4.2925,4.3376,4.3386,4.3395,4.3438,4.3454,4.3468,0,0,0,0,0,4.2044,4.2179,4.2176,4.2215,4.2421,4.2572,4.2599,4.2639,4.2595,4.2663,4.2724,4.2717,4.3016,4.2949,4.2987,4.3072,4.3371,4.3383,4.3394,4.3431,4.3451,4.3468,0,0,0,0,0,0,4.2071,4.2194,4.2193,4.2369,4.246,4.2571,4.2658,4.2659,4.2765,4.2757,4.2803,4.283,4.2991,4.3048,4.2972,4.3247,4.3188,4.3208,4.3203,4.3223,4.3238,4.322,4.2936,0,0,0,0,0,4.2097,4.2209,4.2312,4.2457,4.2502,4.2572,4.264,4.2663,4.2759,4.2798,4.2871,4.2966,4.3081,4.3156,4.3267,4.3447,4.3472,4.3524,4.3539,4.3551,4.3567,4.3664,4.3688,4.3438,4.3438,4.3438,0,0,4.2152,4.2234,4.2302,4.2464,4.2537,4.2652,4.2605,4.2729,4.2815,4.2817,4.2973,4.3031,4.3139,4.331,4.3389,4.3363,4.3642,4.3566,4.3575,4.3584,4.3678,4.3702,4.3723,4.3446,4.3444,4.3443,0,0,4.2311,4.2385,4.2513,4.2587,4.2698,4.2743,4.2774,4.2886,4.2923,4.3081,4.3084,4.3188,4.3386,4.3462,4.3527,4.3714,4.3711,4.375,4.3829,4.3923,4.3942,4.396,4.4025,4.4047,4.3766,4.3766,4.3766,0,4.2366,4.2539,4.2579,4.2703,4.2774,4.278,4.291,4.298,4.3122,4.3171,4.3139,4.3386,4.346,4.3648,4.3693,4.3747,4.3782,4.3735,4.3936,4.3954,4.3971,4.4033,4.4058,4.3769,4.3769,4.3769,4.3768,0,4.2599,4.272,4.281,4.2945,4.3026,4.3153,4.3212,4.329,4.3306,4.3354,4.3514,4.3603,4.3731,4.3778,4.3796,4.3969,4.3948,4.3926,4.3868,4.3998,4.4057,4.4081,4.3775,4.3773,4.3772,4.3771,0,0,4.278,4.2935,4.2967,4.3028,4.3151,4.3245,4.3372,4.3496,4.356,4.3659,4.3765,4.3932,4.3912,4.3986,4.4012,4.4095,4.4235,4.4063,4.4066,4.4089,4.4428,4.4442,4.4469,4.4235,4.4239,4.4243,4.4418,0,4.295,4.3173,4.3213,4.3408,4.3518,4.3526,4.3637,4.3724,4.3774,4.3875,4.393,4.4046,4.4012,4.4056,4.4139,4.42,4.4303,4.4189,4.4333,4.4338,4.4302,4.45,4.4515,4.4676,4.4442,4.4446,4.4449,0,4.3177,4.3279,4.3485,4.3591,4.3639,4.3737,4.3853,4.3951,4.405,4.408,4.4162,4.4179,4.431,4.4248,4.4429,4.435,4.4412,4.4451,4.4459,4.4471,4.4399,4.4515,4.4729,4.4751,4.4486,4.4483,4.448,0,4.3284,4.3474,4.3621,4.3673,4.3802,4.387,4.3927,4.4022,4.4094,4.4196,4.4243,4.436,4.4424,4.4514,4.4562,4.4512,4.4739,4.4681,4.4767,4.4766,4.4812,4.4808,4.5035,4.4857,4.4857,4.4856,4.4856,0,4.3468,4.3593,4.367,4.376,4.39,4.3945,4.4083,4.4139,4.4223,4.4324,4.434,4.4435,4.4493,4.4597,4.4635,4.4778,4.4808,4.4835,4.4843,4.4832,4.4828,4.4871,4.486,4.4863,4.4861,4.486,4.4859,0,4.361,4.3667,4.3828,4.3936,4.3966,4.4064,4.4157,4.4245,4.4295,4.4422,4.4455,4.4533,4.4655,4.4712,4.4864,4.489,4.5052,4.5054,4.5017,4.502,4.5101,4.5091,4.5361,4.5398,4.5198,4.52,4.5201,0,4.3722,4.3818,4.3936,4.4004,4.4063,4.4173,4.4246,4.4294,4.437,4.4489,4.4563,4.4685,4.4785,4.498,4.5051,4.5167,4.517,4.5257,4.5187,4.5172,4.5168,4.516,4.5169,4.5268,4.527,4.5272,4.5273,0,4.3913,4.3937,4.4041,4.4155,4.4241,4.4333,4.4424,4.4479,4.4542,4.4626,4.475,4.4828,4.4982,4.5103,4.5224,4.5283,4.5288,4.5295,4.532,4.5308,4.5281,4.5293,4.5048,4.5287,4.5286,4.5285,4.5284,4.5284,4.4042,4.4127,4.4223,4.4338,4.4411,4.4495,4.4582,4.4642,4.4746,4.4874,4.4897,4.5029,4.5125,4.5287,4.5351,4.5455,4.5434,4.5472,4.5481,4.5489,4.5491,4.5267,4.5477,4.5477,4.5477,4.5476,4.5476,0,4.4232,4.4294,4.4399,4.4524,4.4615,4.4612,4.4712,4.4788,4.4903,4.4992,4.509,4.5232,4.5349,4.5429,4.5548,4.5615,4.5621,4.5645,4.5639,4.5652,4.5504,4.5469,4.5638,4.5638,4.5638,4.5638,4.5638,4.5638,4.4341,4.4483,4.4517,4.4696,4.4758,4.4886,4.4943,4.502,4.5091,4.5248,4.5345,4.5396,4.5482,4.5606,4.5714,4.5734,4.5776,4.58,4.5819,4.568,4.5662,4.5646,4.5613,4.581,4.581,4.5958,4.5959,4.596]},{"header":{"parameterUnit":"m.s-1","parameterCategory":1,"la1":30.2991,"la2":30.254,"lo1":-89.0895,"lo2":-89.0444,"dy":0.0017,"dx":0.0017,"nx":28,"ny":28,"refTime":"2025-03-10T21:00:00:Z","depth":0,"parameterNumber":3,"parameterNumberName":"V-component_of_WINDS"},"data":[0,0,0,0,0,0,0,0,0,0,0,0,0,0,0,0,0,0,0,0,0,0,0,0,0,0,0,0,0,0,0,0,0,0,0,0,0,0,0,0,0,0,0,0,0,0,0,0,0,0,0,0,0,0,0,0,0,0,0.9082,0.9083,0,0.9155,0.9156,0.9157,0.9164,0.9163,0.9162,0.9162,0.9239,0.9241,0.9244,0,0,0,0,0,0,0,0,0,0,0,0,0,0.8948,0.8951,0.9082,0.9083,0.9084,0.9155,0.9156,0.9157,0.9164,0.9163,0.9162,0.9161,0.9238,0.9241,0.9244,0,0,0,0,0,0,0,0,0,0,0,0,0,0.9012,0.8951,0.9082,0.9096,0.9098,0.9155,0.9156,0.9157,0.9164,0.9163,0.9162,0.9161,0.9237,0.9241,0.9245,0.9293,0,0,0.9257,0.9259,0,0,0,0,0,0,0,0,0.9009,0.9017,0.9093,0.9095,0.9097,0.9149,0.9137,0.9203,0.9165,0.9139,0.9162,0.916,0.921,0.9216,0.9232,0.9297,0.93,0.9258,0.926,0.9262,0.9263,0,0,0,0,0,0,0,0.9004,0.9014,0.9111,0.9094,0.9097,0.9099,0.9106,0.915,0.918,0.9141,0.9142,0.915,0.9211,0.9228,0.9234,0.9301,0.9258,0.9261,0.9264,0.9265,0.9408,0.9409,0,0,0,0,0,0,0.8997,0.901,0.9109,0.9113,0.9049,0.9102,0.9111,0.9134,0.918,0.9186,0.9151,0.915,0.9222,0.9229,0.9237,0.9296,0.9262,0.9266,0.9268,0.9407,0.9408,0.941,0,0,0,0,0,0,0.8994,0.9006,0.9106,0.9062,0.9075,0.9105,0.9131,0.9136,0.9153,0.9187,0.9193,0.9164,0.9221,0.9231,0.9279,0.9299,0.9268,0.9271,0.9405,0.9407,0.9409,0.9416,0,0,0,0,0,0,0.899,0.9005,0.9024,0.9062,0.9077,0.9146,0.9133,0.9138,0.916,0.916,0.92,0.9206,0.9221,0.9273,0.9283,0.9304,0.9275,0.9404,0.9406,0.9408,0.9414,0.9418,0.9421,0,0,0,0,0,0.8986,0.9023,0.9025,0.9036,0.9101,0.9147,0.9156,0.9172,0.9162,0.9181,0.9203,0.9205,0.9295,0.9277,0.9289,0.9312,0.9402,0.9405,0.9408,0.9412,0.9417,0.9421,0,0,0,0,0,0,0.8987,0.9029,0.9031,0.9082,0.9111,0.9148,0.9173,0.9177,0.921,0.9208,0.9227,0.9236,0.9283,0.9302,0.9282,0.9361,0.9348,0.9353,0.9347,0.9352,0.9355,0.935,0.9278,0,0,0,0,0,0.8993,0.9027,0.9061,0.9103,0.9118,0.9143,0.9163,0.9173,0.9204,0.9217,0.9242,0.9273,0.9308,0.9331,0.9365,0.9416,0.9425,0.9438,0.9441,0.9444,0.9449,0.9476,0.9482,0.9419,0.9419,0.9419,0,0,0.9006,0.9033,0.9054,0.9104,0.9128,0.9162,0.9153,0.919,0.9216,0.9223,0.9269,0.9288,0.9324,0.9373,0.9396,0.939,0.9468,0.9448,0.945,0.9453,0.948,0.9486,0.9491,0.9421,0.9421,0.9421,0,0,0.9048,0.9072,0.9109,0.9132,0.9168,0.9184,0.9193,0.923,0.9243,0.9289,0.9295,0.9325,0.9386,0.941,0.9431,0.948,0.9483,0.949,0.9509,0.9536,0.9541,0.9545,0.9562,0.9568,0.9495,0.9495,0.9495,0,0.9061,0.9112,0.9128,0.9164,0.9186,0.9193,0.923,0.9252,0.9298,0.9312,0.9305,0.938,0.9404,0.9459,0.9471,0.9487,0.9498,0.9486,0.9539,0.9544,0.9548,0.9564,0.9571,0.9496,0.9495,0.9495,0.9495,0,0.9125,0.9161,0.9187,0.9229,0.9254,0.9291,0.9311,0.9334,0.9342,0.9359,0.9405,0.9434,0.9474,0.9488,0.9496,0.9543,0.9538,0.9535,0.9522,0.9554,0.957,0.9577,0.9496,0.9496,0.9496,0.9496,0,0,0.9171,0.922,0.923,0.9248,0.9287,0.9315,0.9352,0.939,0.9409,0.944,0.9471,0.9521,0.9517,0.954,0.9551,0.9574,0.961,0.9568,0.9569,0.9574,0.9664,0.9666,0.9674,0.9612,0.9613,0.9615,0.9661,0,0.9217,0.9283,0.9297,0.9353,0.9386,0.9392,0.9424,0.9451,0.9467,0.9497,0.9516,0.9551,0.9543,0.9557,0.9581,0.9601,0.9629,0.9598,0.9641,0.9643,0.9633,0.9682,0.9685,0.9728,0.9667,0.9668,0.9669,0,0.928,0.9311,0.937,0.9404,0.9418,0.9446,0.9482,0.951,0.9541,0.9551,0.9576,0.9584,0.9622,0.9606,0.9659,0.9638,0.9656,0.9669,0.9671,0.9676,0.9658,0.9688,0.9742,0.9748,0.9679,0.9678,0.9678,0,0.9307,0.9364,0.9406,0.9422,0.9462,0.9482,0.9499,0.9529,0.955,0.9581,0.9595,0.963,0.965,0.9677,0.9693,0.9681,0.9744,0.9731,0.9754,0.9753,0.9767,0.9766,0.9824,0.9779,0.9779,0.9779,0.9779,0,0.9357,0.9393,0.9419,0.9445,0.9485,0.9501,0.954,0.9558,0.9583,0.9613,0.962,0.9648,0.9668,0.9699,0.9712,0.9753,0.9762,0.9771,0.9774,0.977,0.9769,0.9783,0.978,0.9781,0.978,0.978,0.978,0,0.9395,0.9413,0.946,0.9493,0.9503,0.9531,0.9559,0.9585,0.96,0.9638,0.9647,0.9672,0.9708,0.9727,0.9773,0.9781,0.9827,0.9829,0.9817,0.9818,0.984,0.9838,0.9909,0.9919,0.9867,0.9868,0.9868,0,0.9426,0.9453,0.9489,0.9509,0.9527,0.9559,0.9581,0.9597,0.9619,0.9655,0.9676,0.9712,0.9742,0.9799,0.9821,0.9855,0.9858,0.988,0.9863,0.9858,0.9858,0.9856,0.9858,0.9884,0.9884,0.9884,0.9885,0,0.9478,0.9486,0.9516,0.955,0.9575,0.9602,0.9629,0.9645,0.9666,0.969,0.9726,0.9749,0.9794,0.983,0.9866,0.9884,0.9888,0.989,0.9897,0.9894,0.9885,0.989,0.9825,0.9888,0.9888,0.9888,0.9888,0.9887,0.9513,0.9538,0.9566,0.96,0.9621,0.9646,0.9671,0.969,0.972,0.9758,0.9765,0.9803,0.9832,0.988,0.9899,0.9929,0.9925,0.9935,0.9938,0.994,0.9941,0.988,0.9936,0.9936,0.9936,0.9936,0.9936,0,0.9566,0.9584,0.9615,0.9652,0.9678,0.9678,0.9707,0.9729,0.9763,0.9789,0.9817,0.9859,0.9893,0.9917,0.9952,0.9971,0.9973,0.9979,0.9978,0.9982,0.9943,0.9934,0.9977,0.9977,0.9977,0.9977,0.9977,0.9977,0.9596,0.9637,0.9647,0.9699,0.9717,0.9754,0.9771,0.9793,0.9814,0.9859,0.9888,0.9903,0.9928,0.9964,0.9995,1.0002,1.0014,1.002,1.0026,0.9989,0.9985,0.9981,0.9972,1.0022,1.0023,1.0063,1.0063,1.0063]}]]